Sugarloaf, CA

1:25 AM PST on February 10, 2016 (GMT -0800)
Big Bear City

Weather History for KL35 - March, 2012

Change the Weather History Date:

Saturday, March 17, 2012

  Actual Average (KBUO) Record (KBUO)
Temperature  
Mean Temperature 34 °F -  
Max Temperature 41 °F 65 °F 73 °F (2001)
Min Temperature 26 °F 43 °F 41 °F (1999)
Degree Days  
Heating Degree Days 30    
Moisture  
Dew Point 29 °F    
Average Humidity 80    
Maximum Humidity 93    
Minimum Humidity 57    
Precipitation  
Precipitation 0.33 in - - ()
Sea Level Pressure  
Sea Level Pressure 29.71 in    
Wind  
Wind Speed 13 mph (SW)    
Max Wind Speed 21 mph    
Max Gust Speed 39 mph    
Visibility 7 miles    
Events Rain , Snow    
Averages and records for this station are not official NWS values.
T = Trace of Precipitation, MM = Missing Value Source: NWS Daily Summary

Daily Weather History Graph

Daily Weather History Graph

Search for Another Location

Airport or City:

Trip Planner

Search our weather history database for the weather conditions in past years. The results will help you decide how hot, cold, wet, or windy it might be!

Date:

Astronomy

Mar. 17, 2012 Rise Set
Actual Time 6:54 AM PDT 6:57 PM PDT
Civil Twilight 6:29 AM PDT 7:22 PM PDT
Nautical Twilight 6:00 AM PDT 7:51 PM PDT
Astronomical Twilight 5:30 AM PDT 8:20 PM PDT
Moon 3:47 AM PDT (3/17) 2:36 PM PDT (3/17)
Length of Visible Light 12h 52m
Length of Day
12h 02m
Waning Crescent, 22% of the Moon is Illuminated
Mar 17
Waning Crescent
Mar 22
New
Mar 30
First Quarter
Apr 6
Full
Apr 13
Last Quarter

Hourly Weather History & Observations

Time (PDT) Temp. Windchill Dew Point Humidity Pressure Visibility Wind Dir Wind Speed Gust Speed Precip Events Conditions
12:15 AM 41.0 °F 33.9 °F 26.6 °F 57% 29.90 in 10.0 mi West 12.7 mph - N/A   Clear
12:35 AM 37.4 °F 30.3 °F 28.4 °F 70% 29.90 in 10.0 mi WSW 10.4 mph 16.1 mph N/A   Clear
12:55 AM 35.6 °F 29.2 °F 30.2 °F 81% 29.89 in 10.0 mi West 8.1 mph - N/A   Mostly Cloudy
1:15 AM 35.6 °F 28.6 °F 30.2 °F 81% 29.87 in 10.0 mi West 9.2 mph 18.4 mph N/A   Scattered Clouds
1:35 AM 35.6 °F 29.2 °F 30.2 °F 81% 29.84 in 10.0 mi WSW 8.1 mph - N/A   Clear
1:55 AM 37.4 °F 30.8 °F 26.6 °F 65% 29.83 in 10.0 mi SW 9.2 mph - N/A   Clear
2:15 AM 37.4 °F 31.4 °F 26.6 °F 65% 29.82 in 10.0 mi SW 8.1 mph 18.4 mph N/A   Clear
2:35 AM 37.4 °F 30.3 °F 26.6 °F 65% 29.81 in 10.0 mi SW 10.4 mph 25.3 mph N/A   Clear
2:55 AM 35.6 °F 28.0 °F 26.6 °F 70% 29.81 in 10.0 mi SW 10.4 mph 16.1 mph N/A   Clear
3:15 AM 35.6 °F 27.5 °F 26.6 °F 70% 29.79 in 10.0 mi SW 11.5 mph 25.3 mph N/A   Clear
3:35 AM 35.6 °F 25.9 °F 24.8 °F 65% 29.77 in 10.0 mi SW 16.1 mph 27.6 mph N/A   Clear
3:55 AM 35.6 °F 25.9 °F 28.4 °F 75% 29.77 in 10.0 mi SW 16.1 mph 27.6 mph N/A   Scattered Clouds
4:15 AM 33.8 °F 25.8 °F 28.4 °F 81% 29.76 in 10.0 mi SW 10.4 mph 25.3 mph N/A   Scattered Clouds
4:35 AM 33.8 °F 25.8 °F 28.4 °F 81% 29.75 in 10.0 mi SW 10.4 mph 26.5 mph N/A   Scattered Clouds
4:55 AM 33.8 °F 26.4 °F 28.4 °F 81% 29.75 in 10.0 mi SW 9.2 mph 27.6 mph N/A   Scattered Clouds
5:15 AM 33.8 °F 24.3 °F 28.4 °F 81% 29.74 in 10.0 mi SW 13.8 mph 25.3 mph N/A   Mostly Cloudy
5:35 AM 33.8 °F 24.3 °F 30.2 °F 87% 29.73 in 10.0 mi SW 13.8 mph 23.0 mph N/A   Mostly Cloudy
5:55 AM 33.8 °F 24.3 °F 28.4 °F 81% 29.73 in 10.0 mi SW 13.8 mph 29.9 mph N/A   Overcast
6:15 AM 33.8 °F 23.9 °F 30.2 °F 87% 29.72 in 10.0 mi SSW 15.0 mph 26.5 mph N/A   Overcast
6:35 AM 33.8 °F 22.5 °F 30.2 °F 87% 29.70 in 10.0 mi SW 19.6 mph 33.4 mph N/A   Mostly Cloudy
6:55 AM 33.8 °F 23.5 °F 28.4 °F 81% 29.70 in 10.0 mi SW 16.1 mph 32.2 mph N/A   Clear
7:15 AM 33.8 °F 22.2 °F 28.4 °F 81% 29.69 in 10.0 mi SW 20.7 mph 33.4 mph N/A   Clear
7:35 AM 33.8 °F 23.9 °F 26.6 °F 75% 29.70 in 10.0 mi SW 15.0 mph 34.5 mph N/A   Clear
7:55 AM 35.6 °F 24.5 °F 26.6 °F 70% 29.70 in 10.0 mi SW 20.7 mph 32.2 mph N/A   Clear
8:15 AM 35.6 °F 25.5 °F 24.8 °F 65% 29.70 in 10.0 mi SW 17.3 mph 38.0 mph N/A   Clear
8:35 AM 35.6 °F 25.9 °F 26.6 °F 70% 29.70 in 10.0 mi SSW 16.1 mph 29.9 mph N/A   Clear
8:55 AM 35.6 °F 25.2 °F 30.2 °F 81% 29.69 in 10.0 mi SW 18.4 mph 32.2 mph N/A   Clear
9:15 AM 35.6 °F 24.8 °F 30.2 °F 81% 29.70 in 10.0 mi SW 19.6 mph 34.5 mph N/A   Scattered Clouds
9:35 AM 37.4 °F 27.5 °F 30.2 °F 75% 29.71 in 10.0 mi SSW 18.4 mph 39.1 mph N/A   Scattered Clouds
9:55 AM 37.4 °F 27.8 °F 30.2 °F 75% 29.71 in 7.0 mi SW 17.3 mph 33.4 mph N/A   Scattered Clouds
10:15 AM 37.4 °F 28.9 °F 30.2 °F 75% 29.70 in 10.0 mi SW 13.8 mph 34.5 mph N/A   Scattered Clouds
10:35 AM 37.4 °F 27.8 °F 30.2 °F 75% 29.70 in 10.0 mi SW 17.3 mph 31.1 mph N/A Rain Light Rain
10:55 AM 37.4 °F 28.2 °F 30.2 °F 75% 29.68 in 7.0 mi SW 16.1 mph 32.2 mph N/A   Scattered Clouds
11:15 AM 37.4 °F 27.8 °F 30.2 °F 75% 29.68 in 7.0 mi SW 17.3 mph 34.5 mph N/A   Mostly Cloudy
11:35 AM 37.4 °F 29.8 °F 28.4 °F 70% 29.67 in 7.0 mi SSW 11.5 mph 29.9 mph N/A Rain Light Rain
11:55 AM 33.8 °F 22.8 °F 30.2 °F 87% 29.66 in 1.8 mi SW 18.4 mph 27.6 mph N/A Rain Light Rain
12:15 PM 33.8 °F 22.8 °F 30.2 °F 87% 29.66 in 1.0 mi SSW 18.4 mph 28.8 mph 0.03 in Snow Light Snow
12:35 PM 33.8 °F 23.2 °F 30.2 °F 87% 29.65 in 1.5 mi SW 17.3 mph 35.7 mph 0.04 in Snow Light Snow
12:55 PM 33.8 °F 24.8 °F 30.2 °F 87% 29.65 in 0.8 mi SW 12.7 mph 27.6 mph 0.08 in Snow Light Snow
1:15 PM 32.0 °F 21.2 °F 30.2 °F 93% 29.65 in 0.8 mi WSW 16.1 mph 28.8 mph 0.05 in Snow Light Snow
1:35 PM 32.0 °F 23.6 °F 30.2 °F 93% 29.62 in 0.5 mi SW 10.4 mph 20.7 mph 0.08 in Snow Snow
1:55 PM 32.0 °F 23.0 °F 30.2 °F 93% 29.62 in 0.5 mi SW 11.5 mph 24.2 mph 0.09 in Snow Light Snow
2:15 PM 32.0 °F 23.6 °F 30.2 °F 93% 29.63 in 0.5 mi SW 10.4 mph 19.6 mph 0.03 in Snow Snow
2:35 PM 32.0 °F 24.2 °F 30.2 °F 93% 29.63 in 0.2 mi SW 9.2 mph 24.2 mph 0.07 in Snow Snow
2:55 PM 32.0 °F 23.6 °F 28.4 °F 87% 29.63 in 0.2 mi SW 10.4 mph 21.9 mph 0.10 in Snow Snow
3:15 PM 32.0 °F 24.2 °F 28.4 °F 87% 29.64 in 0.8 mi SW 9.2 mph 25.3 mph 0.01 in Snow Light Snow
3:35 PM 32.0 °F 23.6 °F 28.4 °F 87% 29.61 in 1.8 mi SW 10.4 mph 20.7 mph 0.01 in Snow Light Snow
3:55 PM 32.0 °F 24.8 °F 28.4 °F 87% 29.59 in 0.8 mi WSW 8.1 mph 20.7 mph 0.02 in Snow Light Snow
4:15 PM 30.2 °F 18.9 °F 28.4 °F 93% 29.61 in 0.2 mi SW 16.1 mph 19.6 mph N/A Snow Snow
4:35 PM 30.2 °F 21.3 °F 26.6 °F 86% 29.60 in 0.2 mi SW 10.4 mph 24.2 mph 0.01 in Snow Heavy Snow
4:55 PM 28.4 °F 20.4 °F 24.8 °F 86% 29.57 in 0.2 mi WSW 8.1 mph 18.4 mph 0.02 in Snow Snow
5:15 PM 26.6 °F 16.8 °F 23.0 °F 86% 29.57 in 0.2 mi SW 10.4 mph 18.4 mph 0.02 in Snow Heavy Snow
5:35 PM 26.6 °F 15.7 °F 21.2 °F 80% 29.59 in 0.2 mi WSW 12.7 mph 19.6 mph 0.04 in Snow Heavy Snow
5:55 PM 24.8 °F 14.6 °F 21.2 °F 86% 29.57 in 0.2 mi SSW 10.4 mph 20.7 mph 0.06 in Snow Heavy Snow
6:15 PM 24.8 °F 13.4 °F 21.2 °F 86% 29.56 in 0.2 mi SSW 12.7 mph 23.0 mph 0.02 in Snow Heavy Snow
6:35 PM 24.8 °F 12.4 °F 21.2 °F 86% 29.56 in 0.2 mi SSW 15.0 mph 26.5 mph 0.04 in Snow Heavy Snow
6:55 PM 24.8 °F 11.5 °F 21.2 °F 86% 29.54 in 0.2 mi SW 17.3 mph 25.3 mph 0.05 in Snow Snow
7:15 PM 24.8 °F 11.1 °F 21.2 °F 86% 29.56 in 0.5 mi WSW 18.4 mph 33.4 mph 0.02 in Snow Snow
7:35 PM 23.0 °F 10.6 °F 19.4 °F 86% 29.57 in 1.5 mi WSW 13.8 mph 28.8 mph 0.02 in Snow Light Snow
7:55 PM 23.0 °F 13.1 °F 19.4 °F 86% 29.57 in 1.5 mi SW 9.2 mph 26.5 mph 0.03 in Snow Light Snow
8:15 PM 23.0 °F 11.7 °F 19.4 °F 86% 29.57 in 1.8 mi SW 11.5 mph 26.5 mph N/A Snow Light Snow
8:35 PM 23.0 °F 10.6 °F 19.4 °F 86% 29.57 in 1.0 mi WSW 13.8 mph 25.3 mph N/A Snow Light Snow
8:55 PM 23.0 °F 13.1 °F 19.4 °F 86% 29.57 in 1.0 mi SW 9.2 mph 20.7 mph 0.01 in Snow Light Snow
9:15 PM 23.0 °F 10.1 °F 19.4 °F 86% 29.57 in 1.0 mi SSW 15.0 mph 25.3 mph 0.01 in Snow Light Snow
9:35 PM 21.2 °F 9.5 °F 17.6 °F 86% 29.58 in 0.8 mi SW 11.5 mph 28.8 mph 0.01 in Snow Snow
9:55 PM 21.2 °F 7.8 °F 17.6 °F 86% 29.57 in 1.0 mi SW 15.0 mph 25.3 mph 0.02 in Snow Light Snow
10:15 PM 21.2 °F 9.5 °F 17.6 °F 86% 29.57 in 1.2 mi SW 11.5 mph 21.9 mph 0.01 in Snow Light Snow
10:35 PM 21.2 °F 8.3 °F 15.8 °F 80% 29.58 in 4.0 mi SW 13.8 mph 21.9 mph 0.01 in Snow Light Snow
10:55 PM 21.2 °F 7.8 °F 15.8 °F 80% 29.58 in 2.5 mi SW 15.0 mph 21.9 mph 0.01 in Snow Light Snow
11:15 PM 21.2 °F 7.8 °F 17.6 °F 86% 29.57 in 0.8 mi SW 15.0 mph 25.3 mph N/A Snow Snow
11:35 PM 21.2 °F 8.9 °F 17.6 °F 86% 29.55 in 1.0 mi WSW 12.7 mph 25.3 mph N/A Snow Light Snow
11:55 PM 21.2 °F 8.9 °F 15.8 °F 80% 29.55 in 1.8 mi WSW 12.7 mph 31.1 mph N/A Snow Light Snow